Flag for Finland Weather past 2 weeks in Kemi, Finland

Now
18 °F

Light snow. Low clouds.


Feels Like: 18 °F
Forecast: 19 / 34 °F
Wind: 1 mph from Southeast

Location: Kemi Airport

Current Time: Dec 29, 2014 at 1:42:36 PM

Latest Report: Dec 29, 2014 at 12:50 PM


Visibility: 5 mi

Pressure: 30.07 "Hg

Humidity: 100%

Dew point: 18 °F

Location of KemiLocation

Historic Weather in Kemi — Graph

°F

Kemi temperature yesterday

Maximum temperature yesterday: 7 °F (at 10:20 PM)
Minimum temperature yesterday: -11 °F (at 12:20 AM)
Average temperature yesterday: -3 °F

Past Weeks' High & Low Weather Summary

 TemperatureHumidityPressure
High37 °F (Dec 15, 3:20 PM)100% (Dec 14, 12:20 PM)30.18 "Hg (Dec 14, 12:20 PM)
Low-13 °F (Dec 25, 2:50 AM)76% (Dec 25, 1:20 AM)28.80 "Hg (Dec 20, 2:50 AM)
Average14 °F92%29.45 "Hg
* Reported Dec 14 12:20 PM — Dec 29 12:20 PM, Kemi, Weather by CustomWeather, © 2014

Note: Actual official high and low records may vary slightly from our data, if they occured in-between our weather recording intervals... More about our weather records

Advertising

Kemi weather history for previous 24 hours

 ConditionsComfort  
Time TempWeatherWind HumidityBarometerVisibility
12:20 PM
Dec 29
18 °FLight snow. Low clouds.1 mph93%30.07 "HgN/A
11:50 AM18 °FLight snow. Mostly cloudy.No wind93%30.07 "Hg3 mi
11:20 AM18 °FLight snow. Mostly cloudy.No wind93%30.07 "Hg2 mi
10:50 AM18 °FLight snow. Low clouds.2 mph93%30.09 "HgN/A
10:20 AM18 °FLight snow. Low clouds.6 mph93%30.09 "HgN/A
9:50 AM18 °FLight snow. Mostly cloudy.5 mph93%30.09 "Hg4 mi
9:20 AM16 °FLight snow. Overcast.6 mph100%30.09 "Hg2 mi
8:50 AM16 °FLight snow. Mostly cloudy.9 mph93%30.09 "Hg2 mi
8:20 AM14 °FLight snow. Passing clouds.7 mph92%30.09 "HgN/A
7:50 AM12 °FSnow flurries. Passing clouds.7 mph92%30.09 "HgN/A
7:20 AM10 °FSnow flurries. Passing clouds.6 mph92%30.09 "HgN/A
6:50 AM9 °FLight snow. Partly cloudy.3 mph92%30.09 "HgN/A
6:20 AM10 °FLight snow. Low clouds.3 mph92%30.09 "Hg3 mi
5:50 AM9 °FLight snow. Mostly cloudy.2 mph92%30.12 "Hg3 mi
5:20 AM9 °FLight snow. Mostly cloudy.2 mph92%30.12 "HgN/A
4:50 AM7 °FLight snow. Low clouds.2 mph92%30.12 "HgN/A
4:20 AM7 °FLight snow. Low clouds.2 mph92%30.12 "Hg4 mi
3:50 AM7 °FSnow flurries. Passing clouds.2 mph85%30.15 "HgN/A
3:20 AM7 °FSnow flurries. Passing clouds.1 mph92%30.15 "HgN/A
2:50 AM7 °FSnow flurries. Passing clouds.1 mph92%30.15 "Hg6 mi
2:20 AM7 °FLight snow. Passing clouds.1 mph92%30.15 "HgN/A
1:50 AM9 °FLight snow. Passing clouds.2 mph92%30.15 "HgN/A
1:20 AM9 °FLight snow. Low clouds.3 mph92%30.15 "HgN/A
12:50 AM9 °FLight snow. Low clouds.3 mph92%30.18 "Hg4 mi
12:20 AM9 °FLight snow. Low clouds.2 mph85%30.18 "Hg2 mi
11:50 PM
Dec 28
7 °FLight snow. Low clouds.3 mph92%30.18 "Hg3 mi
11:20 PM7 °FLight snow. Low clouds.2 mph92%30.18 "Hg4 mi
10:50 PM7 °FLight snow. Low clouds.2 mph92%30.18 "Hg3 mi
10:20 PM7 °FLight snow. Low clouds.1 mph85%30.18 "Hg3 mi
9:50 PM5 °FLight snow. Low clouds.2 mph92%30.18 "Hg3 mi
9:20 PM5 °FLight snow. Low clouds.2 mph92%30.18 "Hg3 mi
8:50 PM5 °FLight snow. Low clouds.1 mph92%30.18 "Hg1 mi
8:20 PM5 °FLight snow. Low clouds.2 mph85%30.18 "Hg2 mi
7:50 PM3 °FLight snow. Low clouds.2 mph92%30.18 "Hg2 mi
7:20 PM3 °FLight snow. Low clouds.2 mph92%30.18 "Hg3 mi
6:50 PM3 °FLight snow. Low clouds.2 mph85%30.18 "Hg3 mi
6:20 PM3 °FLight snow. Low clouds.2 mph85%30.18 "Hg3 mi
5:50 PM1 °FLight snow. Low clouds.2 mph92%30.18 "Hg3 mi
5:20 PM1 °FMixture of precip. Low clouds.2 mph85%30.18 "Hg1 mi
4:50 PM1 °FLight snow. Low clouds.3 mph85%30.15 "Hg1 mi
4:20 PM0 °FLight snow. Low clouds.2 mph92%30.15 "Hg1 mi
3:50 PM0 °FLight snow. Low clouds.2 mph92%30.15 "Hg3 mi
3:20 PM0 °FLight snow. Low clouds.2 mph84%30.15 "Hg3 mi
2:50 PM-2 °FLight snow. Low clouds.3 mph92%30.15 "Hg4 mi
2:20 PM-2 °FLight snow. Passing clouds.3 mph84%30.15 "Hg3 mi
1:50 PM-6 °FLight snow. Partly sunny.1 mph84%30.15 "Hg1 mi
1:20 PM-4 °FLight snow. Scattered clouds.No wind84%30.15 "Hg3 mi
Weather by CustomWeather, © 2014

See weather overviewHow to use our weather pages